Weather History for KPHP - December, 2012

Change the Weather History Date:

Sunday, December 2, 2012

  Actual Average Record
Temperature  
Mean Temperature 48 °F 26 °F  
Max Temperature 69 °F 39 °F 69 °F (2012)
Min Temperature 27 °F 14 °F -10 °F (1954)
Degree Days  
Heating Degree Days 17 39  
Month to date heating degree days 36 77  
Since 1 July heating degree days 1509 1712  
Cooling Degree Days 0 0  
Month to date cooling degree days 0 0  
Year to date cooling degree days 1202 818  
Moisture  
Dew Point 28 °F    
Average Humidity 58    
Maximum Humidity 92    
Minimum Humidity 24    
Precipitation  
Precipitation 0.00 in 0.02 in 0.14 in (2005)
Month to date precipitation 0.00 0.03  
Year to date precipitation 6.95 16.95  
Sea Level Pressure  
Sea Level Pressure 29.62 in    
Wind  
Wind Speed 10 mph (SW)    
Max Wind Speed 29 mph    
Max Gust Speed 37 mph    
Visibility 10 miles    
Events      
T = Trace of Precipitation, MM = Missing Value Source: NWS Daily Summary

Daily Weather History Graph

Daily Weather History Graph

Search for Another Location

Airport or City:

Trip Planner

Search our weather history database for the weather conditions in past years. The results will help you decide how hot, cold, wet, or windy it might be!

Date:

Astronomy

Dec. 02, 2012 Rise Set
Actual Time 7:02 AM MST 4:08 PM MST
Civil Twilight 6:30 AM MST 4:41 PM MST
Nautical Twilight 5:54 AM MST 5:17 PM MST
Astronomical Twilight 5:19 AM MST 5:52 PM MST
Moon 8:02 PM MST (12/2) 9:50 AM MST (12/2)
Length of Visible Light 10h 11m
Length of Day
9h 06m
Waning Gibbous, 85% of the Moon is Illuminated
Dec 2
Waning Gibbous
Dec 6
Last Quarter
Dec 13
New
Dec 19
First Quarter
Dec 28
Full

Hourly Weather History & Observations

Time (MST) Temp. Windchill Dew Point Humidity Pressure Visibility Wind Dir Wind Speed Gust Speed Precip Events Conditions
12:55 AM 28.9 °F 21.9 °F 26.1 °F 89% 29.83 in 10.0 mi WNW 6.9 mph - N/A   Clear
1:55 AM 28.0 °F - 25.0 °F 88% 29.83 in 10.0 mi Calm Calm - N/A   Clear
2:55 AM 27.0 °F - 25.0 °F 92% 29.83 in 10.0 mi Calm Calm - N/A   Clear
3:55 AM 28.9 °F 21.9 °F 27.0 °F 92% 29.83 in 10.0 mi West 6.9 mph - N/A   Clear
4:55 AM 28.0 °F 24.2 °F 25.0 °F 88% 29.85 in 10.0 mi West 3.5 mph - N/A   Clear
5:55 AM 28.0 °F - 25.0 °F 88% 29.85 in 10.0 mi Calm Calm - N/A   Clear
6:55 AM 30.9 °F - 28.0 °F 89% 29.83 in 10.0 mi Calm Calm - N/A   Clear
7:55 AM 35.1 °F - 28.9 °F 78% 29.82 in 10.0 mi Calm Calm - N/A   Clear
8:55 AM 43.0 °F - 33.1 °F 68% 29.80 in 10.0 mi Calm Calm - N/A   Clear
9:55 AM 50.0 °F - 35.1 °F 57% 29.77 in 10.0 mi Calm Calm - N/A   Clear
10:55 AM 60.1 °F - 30.9 °F 33% 29.68 in 10.0 mi SW 5.8 mph - N/A   Clear
11:55 AM 63.0 °F - 32.0 °F 31% 29.63 in 10.0 mi South 6.9 mph - N/A   Clear
12:55 PM 68.0 °F - 30.9 °F 25% 29.59 in 10.0 mi South 15.0 mph - N/A   Clear
1:55 PM 66.9 °F - 32.0 °F 27% 29.53 in 10.0 mi South 13.8 mph - N/A   Clear
2:55 PM 66.0 °F - 32.0 °F 28% 29.51 in 10.0 mi SSW 16.1 mph - N/A   Clear
3:55 PM 63.0 °F - 30.0 °F 29% 29.48 in 10.0 mi South 17.3 mph 25.3 mph N/A   Clear
4:55 PM 62.1 °F - 30.0 °F 30% 29.47 in 10.0 mi South 20.7 mph 28.8 mph N/A   Clear
5:55 PM 60.1 °F - 28.0 °F 30% 29.45 in 10.0 mi SSW 20.7 mph 29.9 mph N/A   Clear
6:55 PM 62.1 °F - 26.1 °F 25% 29.42 in 10.0 mi SSW 26.5 mph 33.4 mph N/A   Clear
7:55 PM 62.1 °F - 27.0 °F 26% 29.40 in 10.0 mi SW 17.3 mph 27.6 mph N/A   Clear
8:55 PM 61.0 °F - 27.0 °F 27% 29.38 in 10.0 mi SSW 21.9 mph 28.8 mph N/A   Clear
9:55 PM 60.1 °F - 26.1 °F 27% 29.36 in 10.0 mi SW 18.4 mph 26.5 mph N/A   Clear
10:55 PM 61.0 °F - 25.0 °F 25% 29.36 in 10.0 mi NW 10.4 mph 17.3 mph N/A   Clear
11:55 PM 59.0 °F - 26.1 °F 28% 29.38 in 10.0 mi WSW 12.7 mph - N/A   Clear